Wind_Speed
19 22 24 26 28 29 30 31 32 32 32 32 31 30 29 27 26 26 25 24 23 23 23 23 22 22 22 21 21 21 21 20 19 18 17 16 15 14 13 13 12 11 11 10 10 9 9 9 9 9 9 10 11 12 13 13 13 13 12 12 13 13 14 15 14 12 11 11 13
23 25 27 28 30 31 32 33 33 33 33 32 31 30 28 27 26 25 24 24 23 23 23 22 22 21 21 21 21 20 20 18 17 17 16 15 14 13 12 11 10 10 10 10 10 10 10 11 11 12 12 13 15 16 17 18 17 17 17 17 17 17 17 16 14 11 9 9 10
26 27 28 30 31 32 33 34 34 33 33 32 31 29 28 27 26 25 24 24 23 22 22 21 21 21 21 21 20 20 19 18 17 16 15 14 13 12 11 10 10 10 11 11 12 12 13 14 15 16 17 19 19 20 20 20 20 19 19 18 18 17 16 15 13 11 9 8 8
27 28 30 31 32 33 34 34 34 33 32 31 30 29 28 26 25 24 24 23 22 22 21 21 21 21 21 21 20 19 19 18 17 15 14 13 12 11 11 11 11 12 13 14 15 16 18 19 20 21 22 23 23 22 20 19 18 18 17 17 16 16 15 15 14 13 13 12 11
28 30 31 32 33 34 34 34 34 33 32 31 30 29 27 26 24 23 23 22 22 21 21 21 21 21 22 21 21 20 18 17 16 15 14 14 13 13 13 13 14 15 16 18 19 21 22 23 24 25 26 25 24 21 19 17 16 16 15 15 15 15 15 15 14 14 14 14 13
29 31 32 33 34 35 35 34 34 33 32 31 29 28 26 25 23 22 22 21 21 21 21 21 21 22 22 21 20 18 17 16 15 15 15 15 15 15 16 17 18 19 20 22 23 24 24 24 25 24 24 22 21 19 17 16 15 15 15 14 14 14 14 14 14 14 13 13 13
30 32 33 34 35 35 35 34 33 32 31 30 28 26 25 23 22 21 21 21 21 21 21 21 22 22 21 19 17 16 15 15 15 16 16 17 18 19 20 21 22 23 24 24 23 23 22 21 19 18 17 16 16 16 15 15 15 14 14 14 13 13 13 12 12 12 11 11 11
31 33 34 34 34 34 34 33 32 31 30 28 27 25 24 22 22 21 21 21 21 21 21 21 21 20 19 17 16 15 15 16 17 18 18 19 20 22 23 23 24 23 22 21 19 17 16 14 13 13 13 13 13 14 14 14 14 14 14 13 12 12 11 11 11 10 10 10 11
32 33 34 34 34 33 33 32 31 29 28 27 25 24 23 22 22 22 22 22 22 21 21 21 20 19 17 16 16 16 16 17 18 19 20 21 22 22 23 22 21 19 16 15 13 12 11 11 11 11 12 12 13 13 13 14 14 14 13 13 12 12 11 11 11 11 11 12 12
32 33 33 33 32 32 31 30 29 28 26 25 24 23 22 22 22 22 22 21 22 21 21 20 19 18 17 17 17 17 18 19 19 20 21 21 21 21 20 18 15 13 11 10 10 10 10 10 11 11 12 12 13 13 13 14 14 14 14 13 13 13 12 12 12 12 13 13 14
32 32 32 32 31 30 30 29 28 26 25 24 23 22 22 22 22 22 21 21 21 21 20 19 18 18 18 18 19 19 20 20 20 20 20 19 18 17 15 13 11 10 9 9 10 10 11 12 12 13 13 13 14 14 14 14 14 14 14 14 14 14 14 14 14 14 14 15 15
32 32 32 31 30 29 28 28 27 26 25 23 22 21 21 21 21 21 21 21 21 21 20 20 19 19 20 20 20 20 20 20 20 20 19 17 15 14 12 10 9 9 9 10 11 11 12 13 13 14 14 15 15 15 15 15 15 15 15 15 15 15 15 15 16 16 17 18 18
32 31 31 30 29 28 27 27 26 25 24 23 21 20 20 20 20 20 21 21 21 20 20 20 20 20 20 21 20 20 20 20 19 18 17 15 13 12 10 9 9 10 11 11 12 13 14 14 15 15 16 16 16 16 16 16 16 16 16 17 17 17 18 18 18 19 20 21 22
31 30 29 29 28 28 27 26 26 25 24 23 21 20 20 20 20 20 21 21 21 20 20 20 21 21 21 21 20 19 19 19 18 17 16 15 13 12 11 11 11 12 13 13 14 14 15 16 16 17 17 17 17 17 17 17 18 18 18 19 19 20 20 21 21 22 23 23 25
30 29 28 28 27 27 26 26 25 24 23 22 21 21 20 20 21 21 21 21 21 20 20 21 22 22 22 21 20 19 18 18 17 16 16 15 14 13 13 13 13 14 15 15 15 16 16 17 17 18 18 19 19 19 19 19 19 19 20 20 21 21 22 22 23 24 25 26 27
29 28 27 26 26 26 25 25 24 23 23 22 21 21 21 21 21 21 21 21 20 20 20 21 22 22 21 20 19 18 18 17 17 16 16 16 15 15 15 15 15 16 16 17 17 17 18 18 19 19 19 19 20 20 20 20 20 20 21 21 22 22 23 24 24 25 26 27 28
28 27 26 25 25 25 24 24 23 23 22 22 22 21 21 22 22 21 21 20 20 20 20 20 21 21 21 20 20 19 19 18 17 16 16 16 17 17 17 17 17 18 18 19 19 19 20 20 20 20 20 20 20 20 20 20 21 21 22 22 23 23 24 25 26 27 27 28 29
28 27 26 25 24 24 23 23 22 22 22 21 22 22 22 22 21 21 20 19 19 20 21 21 22 22 21 21 21 21 20 20 18 17 16 16 17 18 18 18 19 19 20 21 21 22 22 22 22 21 21 21 20 20 21 21 22 22 23 23 24 25 25 26 27 28 29 29 29
28 27 26 25 24 23 22 22 21 21 22 22 22 22 21 21 20 19 19 19 20 21 22 23 23 23 23 22 22 23 23 23 20 18 16 16 17 18 19 19 20 21 22 22 22 22 22 22 22 22 21 21 21 22 22 22 23 23 24 24 25 26 27 28 28 29 29 29 29
28 27 27 26 24 23 22 21 21 21 22 22 21 21 20 19 18 18 18 19 21 23 24 24 25 24 24 23 24 24 25 24 21 18 16 15 16 18 19 21 21 22 23 23 23 22 22 22 22 22 22 23 23 23 24 24 24 25 25 26 27 28 29 29 29 29 29 29 28
28 27 26 25 24 23 22 22 22 22 21 21 20 19 18 17 17 18 19 21 23 25 26 26 26 25 25 24 25 25 24 23 20 17 15 14 15 17 19 20 21 22 22 21 21 21 21 22 22 23 24 24 25 25 25 25 26 26 27 28 29 29 30 30 29 29 28 28 28
28 26 25 24 23 23 23 23 23 23 22 21 19 18 18 18 18 20 22 24 25 26 27 27 26 26 25 25 24 23 22 19 17 15 14 15 15 16 17 18 18 19 19 19 20 20 21 22 23 24 25 25 26 26 27 27 28 28 29 30 30 30 30 30 29 29 28 28 28
27 25 24 23 23 23 24 24 25 24 23 21 20 19 19 20 21 22 24 25 26 27 27 26 26 25 24 23 21 19 17 16 15 14 14 14 15 15 15 16 16 17 18 19 20 21 22 23 25 25 26 27 27 28 29 29 30 30 30 30 30 30 30 29 29 29 29 28 28
26 24 23 23 23 24 24 25 25 24 23 21 20 20 21 21 23 24 24 25 25 25 24 22 21 19 18 16 15 14 13 13 13 13 14 14 15 16 17 17 18 19 20 21 22 23 24 25 26 27 28 29 29 30 30 30 30 30 30 30 30 30 30 30 30 30 29 29 29
24 23 23 22 23 24 24 24 24 23 22 22 22 22 23 23 23 23 23 22 20 19 17 15 13 12 11 10 10 11 12 13 14 16 17 18 18 19 20 21 22 22 23 24 25 25 26 27 28 29 30 30 31 31 31 30 30 30 30 30 30 30 30 31 31 31 31 31 31
23 22 22 22 22 23 24 23 23 23 23 24 24 23 23 22 21 19 17 15 14 13 12 12 12 12 13 14 15 17 18 19 20 21 22 22 23 23 23 24 24 25 26 26 27 27 28 28 29 29 30 30 31 31 30 30 30 30 30 30 30 30 30 31 31 32 32 32 32
22 21 21 21 21 22 23 23 24 24 24 24 23 21 20 18 17 15 15 15 15 16 17 18 19 20 21 22 23 24 25 25 25 26 26 26 26 26 26 26 26 27 27 27 28 28 28 29 29 29 29 30 30 30 30 30 30 30 30 30 30 30 30 31 32 32 33 33 34
21 20 20 20 20 21 21 23 23 23 23 21 20 19 18 18 18 19 20 21 22 23 24 25 26 26 27 27 28 28 28 28 28 28 28 28 27 27 27 27 27 27 27 27 28 28 28 28 28 29 28 29 29 29 29 29 29 30 30 30 30 30 31 31 32 33 33 34 34
20 20 20 20 20 20 20 21 21 21 21 20 20 20 21 22 23 23 24 25 25 26 26 27 28 28 28 28 28 28 28 27 27 27 27 27 27 26 26 26 26 26 27 27 27 27 28 28 28 27 27 27 28 28 29 29 29 29 30 30 30 31 31 32 32 33 33 33 34
20 20 20 20 20 19 19 19 19 19 19 20 20 21 22 22 23 23 23 24 24 25 25 26 26 27 27 27 27 27 26 26 26 26 26 26 26 26 26 26 26 26 26 26 26 26 26 26 26 26 26 27 27 28 28 29 29 29 30 30 31 31 31 32 32 33 33 33 33
20 20 19 19 19 18 17 17 17 17 18 19 19 20 21 21 22 22 23 23 23 24 24 25 25 25 25 25 25 25 25 25 25 25 25 25 25 25 25 25 25 25 25 25 25 25 25 25 25 25 26 26 27 27 28 29 29 30 30 30 31 31 31 32 32 32 32 32 32
19 19 18 17 16 16 15 15 16 16 17 18 19 20 21 22 23 24 24 25 25 25 25 25 25 25 25 25 25 25 25 25 25 25 25 25 25 25 25 24 24 24 24 24 24 24 24 25 25 25 26 26 27 28 28 29 29 30 30 31 31 31 31 31 31 31 31 31 30
18 17 16 15 14 14 14 14 15 17 18 19 20 21 22 23 24 25 26 26 26 26 26 26 26 26 26 25 25 25 25 25 25 25 25 25 24 24 24 23 23 23 23 23 24 24 24 25 25 26 26 27 27 28 28 29 30 30 30 31 31 31 31 31 31 30 30 30 29
16 15 14 13 13 13 14 15 16 17 18 19 20 21 22 23 25 25 26 27 27 27 27 27 26 26 26 26 25 25 25 25 24 24 24 24 24 24 23 23 23 23 23 24 24 25 25 26 26 26 27 27 28 28 29 29 30 30 30 31 31 31 30 30 30 29 29 29 28
15 14 13 12 12 13 14 15 16 17 18 19 20 22 23 24 24 25 26 27 27 27 27 27 26 26 26 26 25 25 25 25 24 24 24 24 24 24 24 24 24 24 24 24 25 25 26 26 26 27 27 27 28 28 29 29 30 30 30 30 30 30 30 29 29 28 28 27 26
14 13 12 12 13 14 15 16 17 18 19 20 21 22 23 24 25 26 27 27 27 27 27 26 26 26 26 25 25 25 25 24 24 24 24 24 24 24 24 24 25 25 25 25 25 26 26 26 26 27 27 27 28 28 28 29 29 29 29 29 29 29 28 28 27 26 25 24 24
13 12 12 12 13 14 15 16 17 18 19 20 21 22 23 24 25 26 27 27 27 27 26 26 26 26 25 25 25 25 25 24 24 24 24 24 24 25 25 25 25 25 25 25 26 26 26 26 27 27 27 27 28 27 27 27 27 27 27 27 27 27 26 26 25 24 24 23 22
12 12 12 13 13 14 15 17 18 19 20 21 22 22 23 25 26 27 27 28 27 27 26 26 26 26 26 25 25 25 25 24 24 24 24 24 25 25 25 26 26 26 26 26 26 26 26 27 27 27 27 27 27 26 25 25 25 25 25 26 25 25 24 24 23 23 23 22 21
12 12 12 13 14 15 16 17 18 19 20 21 21 22 23 24 26 27 27 27 27 26 26 26 26 26 26 26 26 25 25 24 24 24 24 24 25 25 25 26 26 26 26 26 26 27 27 27 27 27 27 26 25 24 23 23 23 23 23 23 23 23 23 23 22 22 22 21 20
12 12 13 14 15 16 17 18 18 19 20 20 21 22 23 24 26 27 27 27 27 26 26 26 26 26 26 26 26 26 25 25 25 24 24 24 24 25 25 25 26 26 26 27 27 27 28 28 28 27 26 24 22 21 20 21 21 21 21 21 21 22 22 22 21 21 21 21 21
12 12 13 14 16 17 18 18 19 20 20 21 21 22 23 25 26 27 27 27 27 26 26 26 26 27 27 27 27 26 26 26 25 25 24 24 24 24 25 25 26 27 27 27 27 28 28 28 27 26 24 22 20 18 18 18 19 20 21 21 21 22 22 22 22 21 21 20 20
Wind_Direction
327 329 331 332 332 332 331 331 330 330 329 329 328 327 326 326 325 324 323 322 321 321 321 321 321 321 321 321 320 319 317 314 311 309 307 305 302 299 295 290 287 282 279 275 271 266 264 263 263 265 268 271 278 282 284 284 285 285 285 286 291 297 303 309 313 312 306 298 292
335 335 335 334 333 332 332 332 332 331 331 330 329 328 327 326 325 323 322 321 321 321 321 321 321 320 319 317 315 312 310 306 304 302 300 299 297 294 292 288 286 284 283 281 280 278 276 275 276 279 283 288 291 292 293 293 292 293 293 295 298 302 308 315 322 323 317 304 297
337 336 335 334 334 333 333 333 333 332 332 330 329 328 327 326 325 323 322 321 320 320 320 320 319 317 315 311 308 305 302 300 298 297 297 296 294 292 290 288 288 289 290 291 291 290 289 288 289 290 294 298 300 301 301 300 299 298 299 303 307 313 320 328 335 338 336 326 315
337 336 335 335 334 334 334 334 333 333 332 330 329 327 326 325 324 323 321 320 319 319 318 318 315 312 309 305 302 299 297 295 295 295 295 294 292 290 288 289 291 294 298 300 302 301 300 298 296 296 298 301 304 307 308 309 308 307 308 313 318 324 331 335 336 337 336 333 329
336 336 335 335 335 335 334 334 333 332 331 330 328 326 325 324 322 321 320 318 316 315 315 313 310 307 304 302 299 297 295 293 293 293 292 292 291 290 290 293 295 298 302 305 306 306 304 302 301 300 302 304 307 311 315 318 319 320 321 323 326 329 332 332 332 332 331 329 327
336 336 336 336 335 334 334 333 333 332 330 329 327 325 322 321 320 319 317 314 312 311 309 308 306 304 302 301 299 297 294 292 292 292 293 294 295 295 296 298 299 301 303 304 305 306 305 304 304 305 307 310 314 319 323 327 330 331 332 331 331 330 329 328 326 324 323 321 319
336 336 336 335 334 334 333 332 331 330 329 327 325 322 319 317 316 315 313 311 309 307 305 304 303 302 300 299 297 295 293 292 293 295 297 299 300 301 302 302 303 304 304 304 305 306 306 308 311 315 320 325 330 333 335 337 337 337 337 335 333 330 327 323 320 318 315 313 311
335 335 335 334 333 332 331 330 330 329 327 326 323 319 316 314 312 311 310 309 307 304 302 301 300 298 297 295 292 291 292 294 297 300 301 303 304 305 306 306 306 306 307 307 309 311 314 319 326 334 340 343 344 343 342 340 339 338 338 337 335 332 329 326 323 319 317 314 312
333 333 333 332 331 330 329 329 328 327 326 323 320 317 313 310 308 307 307 306 305 302 299 297 296 294 292 290 289 290 294 297 300 303 305 307 308 309 309 309 309 310 312 315 319 324 331 337 342 344 343 343 341 339 336 335 333 333 333 333 333 332 331 329 328 325 322 319 316
331 331 331 331 330 329 328 327 326 325 324 322 319 315 311 307 305 305 304 304 302 299 296 293 291 289 287 287 288 292 296 300 304 307 309 310 310 310 309 310 312 315 321 325 329 333 336 338 337 336 334 333 331 330 328 326 325 325 324 324 324 324 323 322 321 320 318 316 313
330 330 330 329 328 327 326 325 324 323 322 321 318 314 309 305 303 303 302 301 298 294 290 287 285 284 285 288 291 295 299 304 307 309 309 309 309 308 308 309 313 319 323 326 327 328 328 327 326 325 324 323 322 322 320 319 319 318 318 318 317 316 314 313 312 311 310 309 308
329 329 329 328 327 326 325 324 323 322 321 320 317 313 308 304 301 300 299 297 294 290 285 283 282 284 287 292 296 300 304 306 308 308 308 306 304 304 305 307 310 314 316 317 317 317 317 317 317 316 316 316 316 315 315 314 314 313 313 312 311 310 309 308 307 307 306 305 304
328 328 328 327 326 325 324 323 323 322 321 318 315 311 307 303 300 297 295 293 290 286 283 281 282 285 290 296 301 305 306 307 307 307 305 301 298 297 297 299 302 303 305 306 308 309 310 310 311 311 311 311 311 311 311 310 309 308 308 307 306 305 305 304 304 304 303 303 303
327 327 327 326 325 324 324 323 323 321 319 316 313 310 306 302 298 295 292 288 285 282 281 281 282 285 290 296 302 305 306 306 305 303 300 296 291 289 289 291 294 296 298 299 301 303 304 305 306 306 307 307 308 307 307 306 305 304 304 303 303 302 302 301 301 302 302 301 301
327 326 326 325 324 324 323 323 322 320 318 315 311 308 305 301 297 294 290 287 283 281 279 280 282 285 289 293 298 301 302 302 300 298 295 290 286 284 284 287 290 292 293 294 296 297 299 300 301 302 302 303 304 304 303 303 302 301 301 300 300 300 299 300 300 300 300 300 300
325 325 325 324 323 323 322 322 321 320 317 314 311 307 303 300 297 293 290 286 282 280 278 278 280 284 288 291 294 297 298 297 295 293 289 286 282 281 282 285 288 289 290 291 292 293 294 294 295 296 297 298 299 299 300 299 299 298 298 298 297 297 298 298 298 299 299 299 299
324 324 323 323 322 322 322 321 321 319 317 314 310 306 302 299 296 292 288 284 280 277 276 277 279 282 286 288 291 294 295 294 290 286 283 280 279 279 280 283 284 286 287 288 288 288 289 289 289 290 291 293 294 295 296 296 296 296 296 296 295 296 296 297 297 297 298 298 298
324 324 323 322 321 321 321 321 320 319 317 313 309 305 300 297 293 289 285 280 276 273 273 276 278 281 283 287 290 293 293 291 285 279 275 275 275 276 277 279 281 282 284 284 285 285 285 285 286 287 289 291 293 295 296 296 296 295 295 295 295 295 296 297 297 297 297 297 297
325 325 324 323 321 320 319 319 319 317 315 311 307 302 297 293 289 284 279 275 272 271 272 275 278 281 284 287 291 292 292 289 281 274 269 269 271 272 273 275 277 279 280 281 282 283 284 285 287 290 294 296 298 299 298 297 296 295 295 295 295 296 297 298 298 298 297 297 297
327 326 324 323 321 319 317 316 316 314 311 308 303 297 292 287 282 276 272 270 271 272 274 276 279 282 286 289 292 292 291 287 280 273 268 268 267 268 269 272 274 276 278 280 281 284 287 291 296 300 302 303 303 301 299 297 296 295 295 296 297 298 298 299 299 299 299 298 298
327 326 324 322 319 317 315 314 313 311 308 302 296 290 284 279 275 271 269 270 272 274 277 279 281 284 287 290 292 291 289 285 279 275 273 271 269 268 269 271 273 276 278 281 286 291 296 302 305 307 307 305 303 301 299 297 296 296 297 298 299 299 300 300 300 300 299 299 298
327 325 323 320 318 316 315 314 312 309 305 298 291 285 279 275 272 271 272 274 276 278 279 281 283 285 287 289 289 289 286 283 279 277 276 276 275 274 274 275 278 282 287 292 298 303 307 309 310 308 306 304 302 300 298 298 297 298 299 299 300 301 301 301 301 301 300 299 298
326 323 321 318 317 315 315 314 312 309 304 297 290 285 280 277 275 275 276 277 278 279 280 281 283 284 285 287 287 286 283 280 279 279 281 284 287 289 291 292 296 300 304 307 309 311 311 311 309 307 305 302 301 300 299 299 299 300 300 301 301 302 302 302 302 302 301 300 299
324 321 319 317 317 315 314 313 311 308 303 296 290 285 281 279 278 277 278 278 278 279 280 282 283 284 285 286 287 287 288 289 292 295 299 302 306 309 311 313 314 314 314 314 313 313 312 310 308 305 303 302 300 300 300 300 301 301 302 302 303 303 304 303 303 302 302 301 299
322 320 318 317 317 316 314 312 309 306 302 297 290 284 279 278 277 277 278 279 280 281 283 287 291 294 297 301 306 311 315 319 321 322 322 322 321 321 321 320 319 317 315 314 313 312 310 308 306 303 302 301 300 300 301 301 302 303 303 304 304 304 304 304 304 303 302 301 300
322 321 320 320 319 318 316 314 311 306 302 299 291 283 279 280 280 281 284 287 293 299 306 314 319 323 326 329 330 331 332 332 331 330 329 327 326 324 322 320 318 316 314 313 311 309 307 305 303 302 301 301 301 301 302 302 303 303 304 305 305 305 305 304 304 303 302 301 300
323 323 323 323 323 322 320 318 314 307 301 295 290 287 288 292 297 303 309 316 321 326 328 330 331 331 331 331 331 331 331 331 330 329 328 326 324 323 321 319 317 315 313 311 308 306 304 302 301 301 301 301 302 302 303 303 304 304 305 305 305 305 305 304 303 303 302 301 301
325 326 326 326 326 325 323 319 314 309 303 298 298 302 309 315 319 322 324 325 326 328 328 329 329 329 329 330 330 330 330 329 328 327 326 324 323 321 319 317 315 313 310 308 306 304 303 302 302 302 302 302 303 303 304 304 305 305 305 305 305 305 304 304 303 303 302 302 302
327 328 330 330 329 328 325 321 316 313 311 312 315 318 322 324 326 326 327 327 328 329 330 330 331 331 331 332 332 331 330 330 328 327 325 323 321 319 317 315 313 311 309 307 306 305 305 304 304 304 304 304 304 304 304 305 305 306 306 305 305 305 304 304 304 303 303 303 302
331 333 334 334 334 331 328 324 322 321 323 325 328 331 332 334 335 335 336 336 337 337 337 337 337 337 336 335 334 333 332 330 328 326 323 321 319 317 315 314 312 311 310 309 308 307 307 307 306 306 306 306 305 305 306 306 306 306 306 305 305 305 305 304 304 303 303 303 303
334 336 337 336 335 333 330 329 330 332 336 339 342 345 347 349 349 349 349 349 348 346 345 343 342 340 338 337 335 333 331 329 327 324 322 320 318 317 316 316 315 314 313 311 311 310 309 309 308 308 307 307 307 306 306 306 306 306 306 306 305 305 305 304 304 304 303 303 304
334 335 336 334 333 332 333 335 339 343 347 351 353 354 355 355 355 354 353 352 351 349 347 345 342 339 337 335 334 332 330 328 326 324 323 321 320 320 320 319 319 317 316 315 314 313 312 311 311 310 309 309 308 308 307 307 307 307 306 306 306 305 305 304 304 304 304 304 304
332 332 331 331 332 335 339 345 349 352 354 355 355 355 354 354 353 352 351 350 348 346 344 342 340 338 336 334 333 331 330 328 327 326 325 324 324 324 324 323 322 320 319 317 316 315 314 313 313 312 311 310 310 309 308 308 308 307 307 307 306 305 305 304 304 304 304 305 306
328 328 329 332 337 343 349 353 354 355 354 354 353 352 351 350 350 349 348 346 345 343 341 339 338 336 335 334 333 332 331 330 329 328 328 327 326 326 325 325 323 322 320 319 318 317 316 315 314 314 313 312 311 310 309 309 308 308 307 307 306 305 304 304 304 304 305 306 307
326 328 333 340 347 353 355 356 354 353 352 350 349 348 347 347 346 345 344 343 341 340 338 337 336 335 334 334 334 334 333 332 331 330 329 328 327 326 325 324 323 322 321 320 319 318 317 316 315 315 314 313 312 311 310 310 309 308 307 306 305 305 305 304 305 306 307 308 308
325 331 339 348 354 357 356 354 352 350 348 346 344 343 343 342 342 341 340 339 339 337 337 336 335 335 335 335 335 335 334 333 332 331 329 328 327 325 324 323 323 322 321 320 319 319 318 317 316 316 315 314 313 312 311 310 309 308 307 306 305 305 305 306 306 307 307 307 307
328 335 344 351 355 355 353 350 347 345 343 341 340 339 339 338 338 338 337 337 337 336 336 336 336 336 336 336 336 336 335 333 332 330 329 327 326 325 324 323 322 322 321 321 320 319 319 318 318 317 316 315 314 313 311 310 308 307 306 306 306 306 306 307 307 307 307 307 306
330 338 345 349 350 349 347 344 342 340 338 337 336 336 335 335 335 336 336 336 336 336 336 337 337 337 337 337 336 336 335 333 331 329 328 326 325 324 323 323 322 322 322 322 321 321 320 320 319 319 318 317 315 313 311 309 307 307 306 306 307 307 308 307 308 308 308 308 308
331 338 343 345 345 343 341 339 336 334 333 332 332 332 332 333 334 334 335 335 336 336 337 337 338 338 337 337 336 335 334 332 330 328 327 326 325 324 324 323 323 323 323 323 322 322 322 321 321 320 319 317 316 314 311 309 308 307 308 308 308 309 309 309 309 310 310 310 310
329 335 339 340 340 338 336 333 331 329 328 327 327 328 330 331 332 333 334 335 336 336 337 337 338 337 337 336 335 334 332 331 329 328 327 326 325 325 324 324 323 323 323 323 323 323 322 322 322 321 320 318 316 314 312 310 309 309 309 309 309 309 310 311 312 312 313 313 313
328 332 335 336 335 334 331 328 326 324 323 323 324 326 328 330 332 333 334 335 335 336 336 337 337 337 336 335 333 332 331 330 329 327 327 326 326 325 325 324 324 324 323 323 324 324 323 323 323 322 321 319 318 316 313 311 310 310 309 309 310 310 311 312 313 314 314 314 312
Height
1525 1524 1523 1522 1521 1520 1520 1518 1517 1516 1514 1513 1511 1510 1509 1507 1505 1504 1502 1501 1499 1498 1496 1495 1494 1493 1491 1490 1489 1488 1487 1486 1485 1485 1484 1483 1482 1481 1480 1480 1479 1479 1478 1478 1477 1477 1477 1476 1476 1476 1475 1475 1475 1474 1474 1473 1473 1472 1472 1471 1471 1470 1470 1470 1470 1470 1470 1470 1470
1523 1523 1522 1521 1520 1519 1518 1517 1515 1514 1513 1512 1510 1509 1507 1506 1505 1503 1502 1500 1499 1498 1496 1495 1494 1493 1491 1490 1489 1488 1487 1486 1485 1484 1483 1482 1481 1480 1480 1479 1479 1478 1478 1477 1477 1477 1476 1476 1476 1475 1475 1475 1474 1474 1473 1473 1472 1472 1471 1470 1470 1470 1469 1469 1469 1469 1470 1470 1470
1522 1521 1520 1520 1519 1518 1516 1515 1514 1513 1512 1510 1509 1508 1506 1505 1504 1502 1501 1500 1499 1497 1496 1495 1494 1493 1492 1490 1489 1488 1487 1486 1485 1484 1483 1482 1480 1480 1479 1479 1478 1477 1477 1477 1477 1476 1476 1476 1475 1475 1474 1474 1473 1473 1472 1472 1471 1471 1470 1469 1469 1468 1468 1468 1468 1468 1469 1469 1469
1521 1520 1519 1518 1517 1516 1515 1514 1513 1511 1510 1509 1508 1506 1505 1504 1503 1502 1500 1500 1498 1497 1496 1495 1494 1493 1492 1490 1489 1488 1487 1486 1485 1484 1483 1482 1480 1480 1479 1478 1477 1477 1476 1476 1476 1475 1475 1475 1474 1474 1473 1472 1472 1471 1471 1470 1470 1469 1469 1468 1468 1468 1468 1468 1468 1468 1468 1468 1468
1520 1519 1518 1517 1515 1514 1513 1512 1511 1510 1508 1507 1506 1505 1504 1503 1502 1501 1500 1499 1498 1497 1496 1495 1494 1492 1491 1490 1489 1488 1487 1485 1485 1484 1483 1482 1480 1480 1479 1478 1477 1476 1476 1475 1475 1474 1474 1473 1472 1472 1471 1470 1470 1469 1469 1469 1468 1468 1468 1468 1467 1467 1467 1467 1467 1467 1467 1467 1467
1518 1517 1516 1515 1514 1512 1511 1510 1509 1508 1506 1505 1504 1503 1502 1501 1500 1500 1499 1498 1497 1496 1495 1494 1493 1491 1490 1489 1488 1487 1486 1485 1484 1483 1482 1481 1480 1480 1479 1478 1477 1476 1475 1474 1473 1472 1472 1471 1471 1470 1469 1469 1468 1468 1467 1467 1467 1467 1467 1467 1467 1467 1467 1467 1466 1466 1466 1466 1466
1516 1515 1514 1513 1512 1511 1510 1508 1507 1506 1505 1504 1503 1501 1500 1500 1499 1498 1498 1497 1496 1495 1494 1493 1492 1490 1489 1488 1487 1486 1485 1485 1484 1483 1482 1481 1480 1479 1478 1477 1476 1475 1474 1473 1472 1471 1470 1470 1469 1468 1468 1467 1467 1466 1466 1466 1466 1466 1466 1466 1465 1465 1465 1465 1465 1465 1465 1465 1465
1515 1514 1513 1511 1510 1509 1508 1506 1505 1504 1503 1502 1501 1500 1499 1498 1497 1496 1496 1495 1495 1494 1493 1492 1490 1490 1488 1487 1486 1485 1485 1484 1483 1482 1481 1480 1479 1478 1477 1476 1475 1474 1472 1471 1470 1470 1469 1468 1468 1467 1467 1466 1466 1466 1465 1465 1465 1465 1465 1465 1465 1464 1464 1464 1464 1464 1464 1464 1464
1513 1512 1511 1510 1509 1507 1506 1505 1504 1502 1501 1500 1499 1498 1497 1496 1496 1495 1494 1494 1493 1492 1491 1490 1489 1488 1487 1486 1485 1484 1483 1482 1481 1480 1479 1479 1478 1477 1475 1475 1474 1472 1471 1470 1470 1469 1468 1468 1467 1467 1466 1466 1466 1465 1465 1465 1465 1464 1464 1464 1464 1464 1463 1463 1463 1463 1462 1462 1462
1511 1510 1509 1508 1506 1505 1504 1503 1501 1500 1499 1498 1497 1496 1495 1495 1494 1493 1493 1492 1492 1491 1490 1489 1488 1487 1486 1485 1484 1483 1482 1481 1480 1479 1478 1477 1476 1475 1474 1473 1472 1471 1470 1470 1469 1468 1468 1467 1467 1466 1466 1466 1465 1465 1465 1465 1464 1464 1464 1464 1463 1463 1463 1463 1462 1462 1462 1461 1461
1510 1508 1507 1506 1505 1503 1502 1501 1500 1498 1497 1496 1495 1495 1494 1493 1493 1492 1491 1491 1490 1490 1489 1488 1487 1486 1485 1484 1483 1481 1480 1479 1478 1477 1476 1475 1475 1474 1473 1472 1471 1471 1470 1469 1469 1468 1467 1467 1466 1466 1466 1465 1465 1465 1465 1464 1464 1463 1463 1463 1463 1462 1462 1462 1462 1461 1461 1461 1460
1508 1506 1505 1504 1503 1501 1500 1499 1498 1496 1495 1494 1494 1493 1492 1492 1491 1490 1490 1489 1489 1488 1487 1487 1486 1485 1484 1482 1481 1480 1479 1478 1477 1476 1475 1474 1473 1473 1472 1471 1470 1470 1469 1469 1468 1467 1466 1466 1465 1465 1465 1465 1465 1464 1464 1464 1463 1463 1462 1462 1462 1462 1461 1461 1461 1461 1460 1460 1460
1505 1504 1503 1502 1500 1499 1498 1497 1495 1495 1494 1493 1492 1491 1491 1490 1490 1489 1489 1488 1487 1487 1486 1485 1484 1483 1482 1481 1480 1479 1478 1477 1475 1475 1474 1473 1472 1471 1471 1470 1470 1469 1469 1468 1467 1466 1466 1465 1465 1464 1464 1464 1464 1463 1463 1463 1462 1462 1461 1461 1461 1461 1460 1460 1460 1460 1460 1459 1459
1504 1502 1501 1500 1499 1497 1496 1495 1494 1493 1492 1491 1490 1490 1489 1489 1488 1488 1487 1486 1486 1485 1485 1483 1482 1481 1480 1479 1478 1477 1476 1475 1474 1473 1472 1472 1471 1470 1470 1469 1469 1468 1468 1467 1466 1465 1465 1464 1464 1463 1463 1463 1463 1462 1462 1461 1461 1461 1460 1460 1460 1460 1459 1459 1459 1459 1458 1458 1457
1502 1500 1499 1498 1497 1495 1494 1493 1492 1491 1490 1489 1489 1488 1488 1487 1487 1486 1486 1485 1485 1484 1483 1481 1480 1479 1478 1477 1476 1475 1475 1473 1473 1472 1471 1470 1470 1469 1468 1468 1467 1467 1466 1466 1465 1465 1464 1463 1463 1462 1462 1462 1461 1461 1461 1460 1460 1460 1459 1459 1459 1458 1458 1458 1457 1457 1457 1456 1455
1500 1498 1497 1496 1495 1494 1493 1491 1490 1490 1489 1488 1487 1487 1486 1485 1485 1485 1484 1484 1483 1482 1481 1480 1478 1477 1476 1475 1474 1474 1473 1471 1471 1470 1469 1469 1468 1468 1467 1466 1466 1465 1465 1465 1464 1463 1463 1462 1461 1461 1461 1460 1460 1460 1459 1459 1459 1458 1458 1457 1457 1457 1456 1456 1456 1455 1455 1454 1454
1498 1496 1495 1494 1493 1492 1491 1490 1489 1488 1487 1487 1486 1485 1485 1484 1484 1483 1483 1482 1481 1480 1479 1477 1476 1475 1474 1473 1472 1471 1470 1470 1469 1468 1468 1467 1466 1466 1465 1465 1464 1464 1463 1463 1462 1462 1461 1460 1460 1460 1459 1459 1458 1458 1458 1457 1457 1456 1456 1456 1455 1455 1455 1454 1454 1453 1453 1452 1451
1496 1495 1494 1492 1491 1490 1490 1489 1488 1487 1486 1485 1485 1484 1483 1483 1482 1481 1481 1480 1479 1478 1476 1475 1474 1473 1472 1471 1470 1469 1468 1467 1466 1466 1465 1465 1465 1464 1464 1463 1462 1462 1462 1461 1460 1460 1459 1459 1458 1458 1457 1457 1456 1456 1456 1455 1455 1455 1454 1454 1453 1453 1452 1452 1451 1451 1450 1450 1449
1495 1493 1492 1491 1490 1489 1488 1487 1487 1486 1485 1485 1484 1483 1482 1481 1480 1480 1479 1478 1477 1475 1474 1473 1472 1471 1470 1469 1468 1467 1466 1465 1465 1464 1463 1463 1463 1462 1461 1461 1460 1460 1460 1459 1459 1458 1457 1457 1456 1456 1455 1455 1455 1454 1454 1453 1453 1452 1452 1452 1451 1451 1450 1450 1449 1449 1448 1447 1446
1493 1492 1490 1490 1488 1487 1486 1486 1485 1484 1484 1483 1482 1481 1480 1480 1479 1478 1477 1476 1475 1474 1472 1471 1470 1469 1468 1467 1467 1465 1465 1464 1463 1462 1461 1461 1460 1460 1459 1459 1458 1458 1458 1457 1457 1456 1455 1455 1454 1454 1454 1453 1453 1452 1452 1451 1451 1450 1450 1449 1449 1448 1448 1447 1446 1446 1445 1444 1444
1491 1490 1489 1488 1487 1486 1485 1484 1483 1483 1482 1481 1480 1480 1479 1478 1477 1476 1475 1474 1473 1472 1471 1470 1469 1468 1467 1465 1465 1464 1463 1462 1461 1460 1460 1459 1458 1458 1457 1457 1456 1456 1455 1455 1455 1454 1453 1453 1452 1452 1452 1451 1451 1450 1450 1449 1449 1448 1447 1447 1446 1446 1445 1445 1444 1443 1442 1441 1441
1490 1489 1488 1486 1485 1484 1483 1482 1481 1481 1480 1479 1478 1478 1477 1476 1475 1474 1474 1473 1472 1470 1469 1468 1467 1466 1465 1464 1463 1462 1461 1460 1460 1459 1458 1457 1457 1456 1455 1455 1454 1454 1453 1453 1452 1452 1451 1451 1451 1450 1450 1449 1449 1448 1448 1447 1446 1445 1445 1444 1444 1443 1442 1442 1441 1440 1440 1439 1438
1489 1487 1486 1485 1484 1482 1481 1480 1480 1479 1478 1477 1477 1476 1475 1475 1474 1473 1472 1471 1470 1469 1468 1466 1465 1464 1463 1462 1461 1460 1459 1459 1458 1457 1456 1456 1455 1454 1453 1453 1452 1452 1451 1451 1450 1450 1450 1449 1449 1448 1448 1447 1447 1446 1445 1445 1444 1443 1442 1441 1441 1440 1440 1439 1438 1437 1437 1436 1435
1487 1486 1485 1483 1482 1481 1480 1479 1478 1478 1477 1476 1475 1475 1474 1473 1472 1471 1470 1469 1468 1467 1466 1465 1463 1462 1461 1460 1459 1458 1457 1457 1456 1456 1455 1454 1453 1453 1452 1451 1451 1450 1450 1450 1449 1448 1448 1447 1446 1446 1445 1445 1444 1444 1443 1442 1441 1440 1440 1439 1438 1437 1436 1436 1435 1435 1434 1433 1432
1486 1485 1483 1482 1480 1480 1479 1478 1477 1476 1475 1475 1474 1473 1472 1471 1470 1469 1468 1467 1466 1465 1464 1462 1461 1460 1459 1458 1457 1456 1456 1455 1455 1454 1454 1453 1452 1451 1451 1450 1450 1449 1449 1448 1447 1446 1446 1445 1445 1444 1443 1443 1442 1441 1440 1440 1439 1438 1437 1436 1435 1434 1434 1433 1432 1431 1430 1430 1429
1485 1483 1482 1480 1479 1478 1477 1477 1476 1475 1475 1474 1473 1472 1471 1470 1469 1467 1466 1465 1464 1463 1462 1461 1460 1459 1457 1456 1456 1455 1455 1454 1453 1453 1452 1451 1451 1450 1450 1449 1449 1448 1447 1446 1445 1445 1444 1444 1443 1442 1441 1440 1439 1439 1438 1437 1436 1435 1434 1433 1432 1431 1431 1430 1429 1428 1427 1426 1426
1483 1481 1480 1479 1478 1477 1476 1476 1475 1475 1474 1473 1472 1470 1470 1468 1467 1466 1465 1464 1463 1462 1461 1460 1459 1458 1457 1456 1455 1454 1453 1453 1452 1451 1451 1450 1450 1449 1448 1448 1447 1446 1445 1445 1444 1443 1442 1442 1441 1440 1439 1438 1437 1436 1435 1434 1433 1432 1431 1431 1430 1429 1428 1427 1426 1425 1424 1423 1422
1481 1480 1478 1477 1476 1476 1475 1475 1474 1474 1473 1472 1471 1470 1469 1467 1466 1465 1465 1463 1462 1461 1460 1459 1458 1457 1456 1455 1454 1453 1452 1451 1451 1450 1449 1449 1448 1447 1447 1446 1445 1445 1444 1443 1442 1441 1440 1440 1439 1438 1437 1436 1435 1434 1433 1432 1431 1430 1429 1428 1427 1426 1425 1424 1423 1422 1421 1420 1419
1479 1478 1476 1475 1475 1474 1474 1474 1473 1472 1472 1471 1470 1469 1468 1467 1465 1465 1463 1462 1461 1460 1459 1458 1457 1456 1455 1454 1453 1452 1451 1450 1449 1449 1448 1447 1446 1446 1445 1445 1444 1443 1442 1441 1440 1439 1438 1437 1436 1435 1435 1434 1432 1431 1430 1430 1429 1428 1426 1425 1425 1424 1422 1421 1420 1419 1418 1417 1416
1478 1476 1475 1474 1473 1473 1473 1472 1472 1471 1470 1470 1469 1468 1466 1465 1464 1463 1462 1461 1460 1459 1458 1457 1456 1455 1454 1453 1452 1451 1450 1449 1448 1447 1446 1446 1445 1444 1444 1443 1442 1441 1440 1439 1438 1437 1436 1435 1434 1433 1432 1431 1430 1429 1428 1427 1426 1425 1424 1423 1422 1421 1420 1419 1418 1416 1415 1414 1413
1476 1475 1474 1473 1472 1472 1471 1471 1470 1470 1469 1468 1467 1466 1465 1464 1463 1462 1461 1460 1459 1458 1457 1456 1455 1454 1453 1452 1451 1450 1449 1448 1447 1446 1445 1444 1444 1443 1442 1441 1440 1439 1438 1437 1436 1435 1434 1433 1432 1431 1430 1429 1428 1427 1426 1425 1424 1423 1421 1420 1420 1418 1417 1416 1415 1414 1413 1412 1411
1475 1474 1473 1472 1471 1471 1470 1470 1469 1468 1468 1467 1466 1465 1464 1463 1462 1461 1460 1459 1458 1457 1456 1455 1454 1453 1452 1451 1450 1449 1448 1447 1446 1445 1444 1443 1442 1441 1440 1439 1438 1437 1436 1435 1434 1433 1432 1431 1430 1429 1428 1427 1426 1425 1424 1422 1421 1420 1419 1418 1417 1416 1415 1413 1412 1411 1410 1409 1409
1474 1473 1472 1471 1470 1470 1469 1468 1468 1467 1466 1466 1465 1464 1463 1462 1461 1460 1459 1458 1457 1456 1455 1454 1453 1452 1450 1449 1448 1447 1446 1445 1444 1443 1442 1441 1440 1439 1438 1437 1436 1435 1434 1433 1432 1431 1430 1429 1428 1427 1426 1425 1424 1422 1421 1420 1419 1418 1416 1415 1414 1413 1412 1411 1410 1409 1408 1407 1406
1473 1472 1471 1470 1469 1468 1468 1467 1467 1466 1465 1465 1464 1463 1462 1461 1460 1459 1458 1457 1456 1455 1454 1453 1452 1450 1449 1448 1447 1446 1445 1444 1443 1442 1440 1440 1438 1437 1436 1435 1435 1433 1432 1431 1430 1429 1428 1427 1426 1425 1424 1422 1421 1420 1419 1418 1416 1415 1414 1413 1411 1410 1409 1408 1407 1406 1405 1404 1404
1473 1471 1470 1469 1468 1467 1467 1466 1466 1465 1465 1464 1464 1463 1462 1461 1460 1459 1458 1457 1455 1454 1453 1452 1451 1449 1448 1447 1446 1445 1443 1442 1441 1440 1439 1438 1437 1436 1435 1434 1433 1432 1430 1430 1428 1427 1426 1425 1424 1423 1421 1420 1419 1418 1416 1415 1414 1413 1411 1410 1409 1408 1407 1406 1405 1404 1403 1402 1401
1472 1471 1470 1469 1467 1467 1466 1465 1465 1465 1464 1463 1463 1462 1461 1460 1459 1458 1457 1456 1455 1453 1452 1451 1450 1448 1447 1445 1444 1443 1442 1440 1440 1438 1437 1436 1435 1434 1433 1432 1431 1430 1429 1428 1426 1425 1424 1423 1422 1420 1419 1418 1417 1415 1414 1413 1411 1410 1409 1408 1406 1405 1405 1404 1403 1402 1401 1400 1399
1471 1470 1469 1468 1467 1466 1465 1465 1464 1464 1463 1462 1462 1461 1460 1459 1458 1457 1456 1455 1453 1452 1451 1450 1448 1447 1445 1444 1443 1442 1440 1439 1438 1437 1435 1435 1433 1432 1431 1430 1429 1428 1427 1426 1425 1424 1422 1421 1420 1419 1417 1416 1415 1413 1412 1411 1409 1408 1407 1405 1404 1403 1402 1401 1400 1400 1399 1398 1397
1470 1469 1468 1467 1466 1465 1465 1464 1463 1463 1462 1461 1461 1460 1459 1458 1457 1456 1455 1453 1452 1451 1450 1448 1447 1445 1444 1443 1441 1440 1439 1438 1436 1435 1434 1433 1432 1431 1430 1428 1427 1426 1425 1424 1423 1422 1420 1419 1418 1417 1415 1414 1413 1411 1410 1409 1407 1406 1405 1404 1402 1401 1400 1400 1399 1398 1397 1396 1395
1470 1469 1468 1466 1465 1465 1464 1463 1462 1462 1461 1460 1460 1459 1458 1457 1456 1455 1453 1452 1451 1449 1448 1447 1445 1444 1442 1441 1440 1439 1438 1436 1435 1434 1433 1431 1430 1429 1428 1427 1425 1425 1423 1422 1421 1420 1419 1417 1416 1415 1413 1412 1411 1410 1408 1407 1405 1404 1403 1402 1401 1400 1399 1397 1396 1395 1395 1394 1393
1469 1468 1467 1466 1465 1464 1463 1462 1461 1461 1460 1460 1459 1458 1457 1455 1455 1453 1452 1450 1449 1448 1446 1445 1444 1442 1441 1440 1439 1437 1436 1435 1434 1432 1431 1430 1429 1427 1426 1425 1424 1423 1422 1420 1419 1418 1417 1415 1414 1413 1411 1410 1409 1408 1407 1405 1404 1402 1401 1400 1399 1398 1396 1395 1395 1394 1393 1392 1391
1468 1467 1466 1465 1464 1463 1462 1461 1461 1460 1459 1458 1457 1456 1455 1454 1453 1452 1450 1449 1448 1446 1445 1444 1442 1441 1440 1438 1437 1436 1435 1434 1432 1431 1430 1428 1427 1426 1425 1423 1422 1421 1420 1419 1418 1416 1415 1414 1412 1411 1410 1409 1408 1407 1405 1404 1403 1401 1400 1399 1397 1396 1395 1394 1392 1392 1391 1390 1389